sat.trackr.live / text

‹ back to catalog

STARLINK-1759

NORAD 46340 · 2020-062R

PAYLOAD ACTIVE UNKNOWN

§ Identity

Operator
Country
US
Launch date
2020-09-03
Launch site
AFETR
Launch vehicle
Mass (kg)
RCS (m²)

Purposes: comms

External: N2YO · Heavens-Above · Gunter

§ Orbital elements

Epoch: 2026-05-24T18:09:03.703104Z

Period
91.25 min
Inclination
53.0175°
Eccentricity
0.0003995
Mean motion
15.78028311 rev/d
Perigee alt
333.3 km
Apogee alt
338.7 km
Semi-major
6,714.2 km
B*
8.1249e-4
RAAN
315.0814°
Arg perigee
236.7270°
Mean anomaly
123.3367°
Rev number
31,688

§ Raw data

STARLINK-17591 46340U 20062R   26144.75629286  .00142680  00000+0  81249-3 0  99962 46340  53.0175 315.0814 0003995 236.7270 123.3367 15.78028311316882

JSON: /api/v1/satellites/46340 · /tle

For live sub-satellite position, see the globe view (requires WebGL).

§ Visibility from observer

Set your observer location to see the next 7 days of passes ≥ 10°. The values pass through the URL so the page stays shareable.

No JS? Fill the form by hand. The geolocation button needs JavaScript.